User: anonymous   Login
Location: Vancouver
(49.2500°N, 123.1330°W)
Time: 04:08:27
(UTC-08:00)
Language:

YAOGAN 6 - Orbit

View from above orbital plane
View from above orbital plane
View from above satellite
View from above satellite

Ground track
Ground track

The orbit data is extracted from the following two-line orbital elements,

1 34839U 09021A   14327.16409353  .00006903  00000-0  30819-3 0  2330
2 34839 097.2705 037.4165 0033143 036.1211 020.8537 15.21172433309863
Epoch (UTC): 23 November 2014 03:56:17
Eccentricity: 0.0033143
inclination: 97.2705°
perigee height: 479 km
apogee height: 525 km
right ascension of ascending node: 37.4165°
argument of perigee: 36.1211°
revolutions per day: 15.21172433
mean anomaly at epoch: 20.8537°
orbit number at epoch: 30986

The dashed part of the orbit path shows where the satellite is in the earth's shadow,  

DLR